Regional Weather Roundup
Issued by NWS

Home | Current Version | Previous Version | Graphics & Text | Print | Product List | Glossary On
Versions: 1 2 3 4 5 6 7 8 9 10 11 12 13 14 15 16 17 18 19 20 21 22 23 24 25 26 27 28 29 30 31 32 33 34 35 36 37 38 39 40 41 42 43 44 45 46 47 48 49 50
774
ASUS45 KBOU 241107
RWRCO

WEATHER ROUNDUP FOR COLORADO
NATIONAL WEATHER SERVICE DENVER/BOULDER CO
500 AM MDT TUE MAY 24 2016

NOTE: "FAIR" INDICATES FEW OR NO CLOUDS BELOW 12000 FEET WITH NO
SIGNIFICANT WEATHER AND/OR OBSTRUCTIONS TO VISIBILITY.

COZ001>005-013-030-031-241200-
...NORTHWEST COLORADO...

CITY           SKY/WX    TMP DP  RH WIND       PRES   REMARKS
CRAIG          FAIR      34  31  88 CALM      29.93S
HAYDEN         FAIR      39  27  60 E10       29.93S
MEEKER         FAIR      37  30  75 CALM      29.92S
MOUNT WERNER   NOT AVBL
STEAMBOAT SPGS FAIR      35  28  76 CALM      29.96R
WALDEN         FAIR      30  27  86 SE5       30.03S WCI  25
$$

COZ006>008-011-241200-
...WEST CENTRAL VALLEYS...

CITY           SKY/WX    TMP DP  RH WIND       PRES   REMARKS
GRAND JUNCTION FAIR      51  24  34 SE16      29.83R
MONTROSE       FAIR      50  22  33 E12       29.93R
EAGLE          FAIR      36  27  69 E5        30.01R
RIFLE          FAIR      40  28  62 SW5       29.90R
DELTA          FAIR      47  20  33 E8        29.91R
NUCLA          NOT AVBL
$$

COZ017>023-064>068-241200-
...SOUTHWEST COLORADO...

CITY           SKY/WX    TMP DP  RH WIND       PRES   REMARKS
DURANGO        FAIR      33  24  69 N3        30.02R
CORTEZ         FAIR      38  24  57 NE5       29.97R
PAGOSA SPRINGS FAIR      36  24  62 NE3       30.07S
TELLURIDE      FAIR      45  13  27 SE12      30.10R
WOLF CREEK PAS FAIR      30  12  47 SW20G26   30.24S WCI  18
$$

COZ009-010-012-014-032>034-037-058>063-241200-
...CENTRAL COLORADO...

CITY           SKY/WX    TMP DP  RH WIND       PRES   REMARKS
ASPEN          FAIR      40  21  46 S10       29.99S
BUENA VISTA    FAIR      33  22  64 CALM      30.05S
COPPER MTN     NOT AVBL
BERTHOUD PASS  FAIR      30  19  64 SW12      30.20S WCI  21
COTTONWOOD PAS FAIR      45  12  26 E3        30.11S
GUNNISON       FAIR      32  25  74 CALM      30.09R
KREMMLING      FAIR      32  28  86 CALM      30.04S
LEADVILLE      FAIR      24  17  74 CALM      30.10S
MONARCH PASS   FAIR      32  14  47 MISG      30.32R
SALIDA         FAIR      41  22  46 CALM      30.12R
SUNLIGHT       FAIR      36  18  48 CALM      30.15R
WILKERSON PASS FAIR      34  18  51 S5        30.19S WCI  30
$$

COZ069>075-241200-
...SAN LUIS VALLEY/SANGRE DE CRISTO MOUNTAINS...

CITY           SKY/WX    TMP DP  RH WIND       PRES   REMARKS
ALAMOSA        FAIR      34  24  67 SW7       30.04R WCI  28
LA VETA PASS   FAIR      43  14  31 S9G22     30.14S
SAGUACHE       FAIR      36  23  60 NW10      30.07R
$$

COZ035-036-038>040-241200-
...NORTHERN COLORADO FRONT RANGE...

CITY           SKY/WX    TMP DP  RH WIND       PRES   REMARKS
DENVER INTL AP FAIR      48  42  80 SW10      29.93S
DMNS CITY PARK   N/A     47  42  85 SE6       29.93S
AURORA         PTCLDY    42  42  99 S8        29.95R
FRONT RANGE AP NOT AVBL
ERIE MUNI ARPT FAIR      40  39  96 CALM      29.93S
BOULDER MUN AP FAIR      46  45  93 CALM      29.93S
CENTENNIAL     FAIR      40  36  86 S3        29.95S
BROOMFIELD     FAIR      46  41  81 CALM      29.94S
FORT COLLINS   FAIR      46  39  76 CALM      29.93F
LONGMONT       FAIR      42  39  88 CALM      29.95S
$$

COZ041-046-047-076>085-087-088-241200-
...PIKES PEAK/PALMER DIVIDE AND SOUTHERN FOOTHILLS...

CITY           SKY/WX    TMP DP  RH WIND       PRES   REMARKS
COLO. SPRINGS  FAIR      48  38  68 N8        29.97R
A. F. ACADEMY  FAIR      41  37  87 N9        29.97R
SCHRIEVER AFB  NOT AVBL
ELLICOTT       FAIR     N/A N/A N/A N3        29.94S
FALCON         FAIR      47  38  71 N5        30.00R
FORT CARSON    FAIR      48  40  73 N12       29.93R
LIMON          CLOUDY    51  43  74 VRB3      29.94S
MONUMENT HILL  FAIR      37  34  87 SW3       30.01S
TRINIDAD       FAIR      45  28  51 W10       29.93S
$$

COZ042>045-048>051-090-091-241200-
...NORTHEAST COLORADO...

CITY           SKY/WX    TMP DP  RH WIND       PRES   REMARKS
GREELEY ARPT   FAIR      43  37  81 NW3       29.93S
AKRON          CLOUDY    48  44  86 NW5       29.92R
BURLINGTON     CLOUDY    54  42  64 NE14      29.88R
WRAY           CLOUDY    52  50  93 NE3       29.89R
STERLING       MOCLDY    43  41  93 CALM      29.90S
HOLYOKE        FAIR      54  46  76 NW7       29.90R
FORT MORGAN    CLOUDY    47  42  81 CALM      29.93R THUNDER
$$

COZ086-089-092>099-241200-
...SOUTHEAST COLORADO...

CITY           SKY/WX    TMP DP  RH WIND       PRES   REMARKS
PUEBLO         FAIR      58  45  62 VRB5      29.90R
LA JUNTA       FAIR      51  45  79 NW10      29.85R
LAMAR          FAIR      51  50  96 W7        29.81R
SPRINGFIELD      N/A     52  50  93 SW9       29.82S
$$




USA.gov is the U.S. government's official web portal to all federal, state and local government web resources and services.